Weather History for Abilene, TX

Change the Weather History Date:

Wednesday, July 2, 2014

  Actual Average Record
Temperature  
Mean Temperature 82 °F 82 °F  
Max Temperature 93 °F 93 °F 107 °F (1980)
Min Temperature 70 °F 71 °F 57 °F (2013)
Degree Days  
Heating Degree Days 0 0  
Month to date heating degree days 0 0  
Since 1 June heating degree days 0 1  
Since 1 July heating degree days 0 0  
Cooling Degree Days 17 17  
Month to date cooling degree days 37 34  
Year to date cooling degree days 1018 866  
Since 1 June cooling degree days 504 469  
Growing Degree Days 32 (Base 50)    
Moisture  
Dew Point 66 °F    
Average Humidity 64    
Maximum Humidity 87    
Minimum Humidity 41    
Precipitation  
Precipitation 0.27 in 0.07 in 2.91 in (1986)
Month to date precipitation 0.27 0.14  
Year to date precipitation 8.01 12.64  
Sea Level Pressure  
Sea Level Pressure 30.01 in    
Wind  
Wind Speed 8 mph (East)    
Max Wind Speed 25 mph    
Max Gust Speed 36 mph    
Visibility 9 miles    
Events Rain , Thunderstorm    
T = Trace of Precipitation, MM = Missing Value Source: NWS Daily Summary

Daily Weather History Graph

Daily Weather History Graph

Search for Another Location

Airport:

Trip Planner

Search our weather history database for the weather conditions in past years. The results will help you decide how hot, cold, wet, or windy it might be!

Date:

Astronomy

Jul. 02, 2014 Rise Set
Actual Time 6:35 AM CDT 8:49 PM CDT
Civil Twilight 6:07 AM CDT 9:18 PM CDT
Nautical Twilight 5:32 AM CDT 9:52 PM CDT
Astronomical Twilight 4:55 AM CDT 10:30 PM CDT
Moon 11:22 AM CDT (7/2) No Moon Set
Length of Visible Light 15h 10m
Length of Day
14h 14m
Waxing Crescent, 24% of the Moon is Illuminated
Jul 2
Waxing Crescent
Jul 5
First Quarter
Jul 12
Full
Jul 18
Last Quarter
Jul 26
New

Hourly Weather History & Observations

Time (CDT) Temp. Heat Index Dew Point Humidity Pressure Visibility Wind Dir Wind Speed Gust Speed Precip Events Conditions
12:52 AM 80.1 °F 81.1 °F 61.0 °F 52% 29.93 in 10.0 mi SSE 10.4 mph - N/A   Clear
1:52 AM 79.0 °F - 62.1 °F 56% 29.93 in 10.0 mi SSE 10.4 mph - N/A   Clear
2:52 AM 77.0 °F - 63.0 °F 62% 29.93 in 10.0 mi SSE 8.1 mph - N/A   Clear
3:52 AM 75.9 °F - 64.0 °F 67% 29.94 in 10.0 mi SSE 6.9 mph - N/A   Clear
4:52 AM 75.0 °F - 64.0 °F 69% 29.93 in 10.0 mi SSE 8.1 mph - N/A   Clear
5:52 AM 73.9 °F - 64.9 °F 73% 29.94 in 10.0 mi South 8.1 mph - N/A   Clear
6:52 AM 73.9 °F - 64.9 °F 73% 29.96 in 10.0 mi South 9.2 mph - N/A   Clear
7:52 AM 77.0 °F - 66.0 °F 69% 29.98 in 10.0 mi SSW 5.8 mph - N/A   Clear
8:52 AM 79.0 °F - 66.9 °F 66% 30.00 in 10.0 mi SW 6.9 mph - N/A   Clear
9:52 AM 82.9 °F 85.4 °F 66.9 °F 58% 30.02 in 10.0 mi Variable 4.6 mph - N/A   Clear
10:52 AM 86.0 °F 88.2 °F 66.0 °F 51% 30.03 in 10.0 mi Variable 6.9 mph - N/A   Scattered Clouds
11:52 AM 89.1 °F 91.3 °F 66.0 °F 46% 30.03 in 10.0 mi North 8.1 mph - N/A   Scattered Clouds
12:52 PM 89.1 °F 91.0 °F 64.9 °F 45% 30.03 in 10.0 mi Variable 5.8 mph - N/A   Scattered Clouds
1:52 PM 91.9 °F 94.1 °F 64.9 °F 41% 30.00 in 10.0 mi North 15.0 mph - N/A   Partly Cloudy
2:52 PM 81.0 °F 82.7 °F 64.9 °F 58% 30.00 in 10.0 mi ENE 23.0 mph 35.7 mph 0.00 in Rain Light Rain
3:01 PM 72.0 °F - 69.1 °F 91% 30.08 in 1.8 mi ENE 21.9 mph 35.7 mph 0.06 in Rain Rain
3:08 PM 72.0 °F - 69.1 °F 91% 30.09 in 2.0 mi NE 13.8 mph 35.7 mph 0.16 in Rain , Thunderstorm Light Thunderstorms and Rain
3:15 PM 72.0 °F - 69.1 °F 91% 30.09 in 10.0 mi NNE 11.5 mph 19.6 mph 0.16 in   Mostly Cloudy
3:27 PM 73.9 °F - 69.1 °F 85% 30.10 in 1.8 mi ENE 12.7 mph 20.7 mph 0.16 in   Haze
3:38 PM 71.1 °F - 69.1 °F 93% 30.11 in 8.0 mi North 15.0 mph - 0.16 in   Mostly Cloudy
4:52 PM 73.0 °F - 70.0 °F 90% 30.05 in 10.0 mi East 8.1 mph - 0.01 in Rain Rain
5:52 PM 75.0 °F - 68.0 °F 79% 30.02 in 10.0 mi East 8.1 mph - 0.00 in   Clear
6:52 PM 77.0 °F - 66.0 °F 69% 30.00 in 10.0 mi ENE 9.2 mph - N/A   Clear
7:52 PM 78.1 °F - 64.9 °F 64% 29.98 in 10.0 mi East 8.1 mph - N/A   Clear
8:52 PM 75.9 °F - 64.9 °F 69% 30.00 in 10.0 mi ESE 3.5 mph - N/A   Clear
9:52 PM 75.0 °F - 66.9 °F 76% 30.03 in 10.0 mi ENE 6.9 mph - N/A   Clear
10:52 PM 73.9 °F - 68.0 °F 82% 30.04 in 10.0 mi ESE 5.8 mph - N/A   Clear
11:52 PM 73.9 °F - 68.0 °F 82% 30.06 in 10.0 mi East 3.5 mph - N/A   Clear